Weather in Bolshaya Kibya

Russia / Udmurt Republic     56°22′01″N   52°36′08″E
temp.,
°C
wind,
m/s
gust,
m/s
humid.,
%
clouds,
%
prec.,
mm/h
press.,
hPa
HPBL,
m
25 february, thu
thu2501:00−27nnw23960 0.0 103319
04:00−28wnw22950 0.0 103319
07:00−29w11974 0.0 103219
10:00−24ssw249416 0.0 1031140
13:00−21s459365 0.0 1029272
16:00−20sse579482 0.0 1027304
19:00−21se4995100 0.0 1025277
22:00−20sse51097100 0.1 1023344
26 february, fri
fri2601:00−21se499895 0.1 1022253
04:00−22se499998 0.1 1022230
07:00−22se489999 0.1 1021217
10:00−21se589799 0.1 1021332
13:00−18se5895100 0.0 1019412
16:00−17se6994100 0.1 1019500
19:00−19se51298100 0.1 1016422
22:00−19se61395100 0.1 1013401
27 february, sat
sat2701:00−18se81494100 0.0 1008451
04:00−16se81595100 1.4 1005555
07:00−15ese71395100 1.8 1002532
10:00−13ese71194100 2.1 1001444
13:00−11ese6994100 0.4 1000476
16:00−9e6994100 1.1 1001430
19:00−10ene61095100 0.4 1001324
22:00−11ene51095100 0.6 1001269
28 february, sun
sun2801:00−11ene6109599 0.2 1001284
04:00−14ne6109598 0.4 1003275
07:00−16ne699599 0.1 1004254
10:00−15ne599599 0.1 1005300
13:00−12nne5793100 0.1 1007366
16:00−12nne5892100 0.1 1008435
19:00−14nne599396 0.1 1010385
22:00−17n499592 0.1 1012221
1 march, mon
mon101:00−20n479660 0.0 1014131
04:00−21n499630 0.0 1016150
07:00−22n49960 0.0 1018165
10:00−19n59938 0.0 1019288
13:00−13n579055 0.0 1020408
16:00−11nnw479070 0.0 1020439
19:00−16wnw239647 0.0 102020
22:00−16w349651 0.0 102059